COSMOS 1275 DEB

Satellite information

Favourite Embed

Satellite Type and Status

DEBRISIN ORBIT

Key statistics

Satellite COSMOS 1275 DEB at a glance.

Uptime

16048

Days in orbit

Revolutions

≈ 14.3

Per day

Orbit

LEO

Low Earth Orbit

Inclination

82.7

Latest

Satellite identification and parameters

Extended collection of information and parameters for COSMOS 1275 DEB.

Object identification

Identified? True

Debris? True

Object name: COSMOS 1275 DEB

International designator: 1981-053MC

Object number (NORAD): 19025

Object ID (CCSDS): 19025

Country: COMMONWEALTH OF INDEPENDENT STATES (CIS)

Current information (Y/N): Y

RCS size: SMALL

Orbital parameters

Period: 100.882 minutes

Inclination: 82.7039 deg

SMA: 7178.517 km

Apoapsis: 816.509 km

Periapsis: 784.255 km

RAAN: 94.0395 deg

Eccentricy: 0.0022466

Argument of periapsis: 300.6055 deg

Mean anomaly: 59.2913 deg

Mean motion: 14.2741631 rev/day

Mean motion (dot): 0.00005285 rev/day2

B* drag term: 0.002143 1/REarth

Two-line elements (TLE)

Creation date: May 12, 2025, 2:31 a.m.

Reference frame: TEME

Reference center: EARTH

Epoch: May 11, 2025, 2:59 p.m. UTC

TLE line 0: 0 COSMOS 1275 DEB

TLE line 1: 1 19025U 81053MC 25131.62459170 .00005285 00000-0 21430-2 0 9992

TLE line 2: 2 19025 82.7039 94.0395 0022466 300.6055 59.2913 14.27416310 45879

Live tracking on map

Real-time ground track for satellite COSMOS 1275 DEB.

In-orbit conjunctions

A list of the most updated potential collisions computed for object COSMOS 1275 DEB.

Target Orbit TCA Probability of collision Miss distance Type
CZ-4 DEB SSO 2024-12-12 18:40:14 0.0001169035 100.0 (m) DEBRIS
NOAA 16 DEB SSO 2024-11-13 22:41:11 0.0001487399 292.0 (m) DEBRIS
SEDSAT 1 LEO 2024-11-04 06:29:35 0.0009568666 137.0 (m) PAYLOAD
SL-3 R/B LEO 2024-07-31 04:01:39 0.0001102973 353.0 (m) ROCKET BODY

Associated space launch

Navigation satellite providing location information for the Tsiklon-B navigation system

COSMOS 1275 DEB was lifted into orbit during the mission ‘Kosmos-3M | Parus 27’, on board a Kosmos-3M space rocket.

The launch took place on June 4, 1981, 3:41 p.m. from 132/2.

For more information about the launch, click the button.

Launch to space Kosmos-3M | Parus 27
Kosmos-3M | Parus 27

Agency: N/A

Status: Launch Successful

Launch date: June 4, 1981, 3:41 p.m. UTC

Rocket: Kosmos-3M

Launch pad: 132/2

Location: Plesetsk Cosmodrome, Russian Federation

...

Latest news about this satellite

There are no fresh news available about this satellite. Check back as we update our databases every day.


Newsletter sign-up

Weekly statistics, charts and insights to help you stay on top of the space industry.